Overview Statistics Trail Chart Weather Telemetry Raw packets
 

This is the latest recevied weather packets stored in our database for station/object WK1F-2. If no packets are shown the sender has not sent any weather packets the latest 10 day(s).

<< 10 11 12 13 14 15 16 >>
Time Temp. Humidity Pressure Rain* Wind** Luminosity Snow
1788538969 26.67° C 96% 1015.9 hPa 0.51 mm - - -
1788538669 26.67° C 96% 1016.1 hPa 0.51 mm - - -
1788538369 26.67° C 96% 1016.1 hPa 0.51 mm - - -
1788538069 26.67° C 96% 1016.1 hPa 0.51 mm - - -
1788537769 26.67° C 96% 1016.2 hPa 0.51 mm - - -
1788537469 26.67° C 96% 1016 hPa 2.79 mm - - -
1788537169 26.67° C 96% 1016 hPa 5.59 mm - - -
1788536869 26.67° C 95% 1016 hPa 6.35 mm - - -
1788536569 26.67° C 95% 1016.1 hPa 6.35 mm - - -
1788536269 26.67° C 95% 1016.2 hPa 5.84 mm - - -
1788535969 26.67° C 95% 1016.2 hPa 5.84 mm - - -
1788535669 26.67° C 95% 1016.1 hPa 5.84 mm - - -
1788535369 26.67° C 94% 1016 hPa 6.86 mm - - -
1788535069 26.11° C 93% 1015.8 hPa 7.62 mm - - -
1788534769 26.11° C 92% 1015.8 hPa 7.62 mm - - -
1788534469 26.11° C 92% 1015.7 hPa 7.62 mm - - -
1788534169 26.67° C 90% 1015.7 hPa 7.62 mm - - -
1788533869 26.67° C 89% 1015.7 hPa 5.08 mm - - -
1788533569 27.22° C 89% 1015.6 hPa 2.54 mm - - -
1788533269 27.22° C 88% 1015.6 hPa 1.78 mm - - -
1788532969 27.78° C 87% 1015.6 hPa 1.78 mm - - -
1788532669 27.78° C 87% 1015.7 hPa 1.78 mm - - -
1788532369 27.78° C 87% 1015.6 hPa 1.78 mm - - -
1788532069 28.33° C 86% 1015.6 hPa 1.78 mm - - -
1788531769 28.33° C 84% 1015.6 hPa 0.51 mm - - -

* Rain latest hour (hover to see other rain measurements)
** Current wind speed in m/s (hover to see current wind gust speed)